This is the latest recevied weather packets stored in our database for station/object N5PA. If no packets are shown the sender has not sent any weather packets the latest 10 day(s).
| Time | Temp. | Humidity | Pressure | Rain* | Wind** | Luminosity | Snow |
|---|---|---|---|---|---|---|---|
| 1777753208 | 21.11° C | 32% | 1016.5 hPa | 0 mm | - | 1025 W/m² | - |
| 1777752909 | 21.11° C | 33% | 1016.6 hPa | 0 mm | - | 1025 W/m² | - |
| 1777752607 | 21.11° C | 36% | 1016.7 hPa | 0 mm | - | 1025 W/m² | - |
| 1777752309 | 21.11° C | 34% | 1016.8 hPa | 0 mm | - | 1023 W/m² | - |
| 1777752008 | 21.11° C | 34% | 1016.7 hPa | 0 mm | - | 1016 W/m² | - |
| 1777751708 | 21.11° C | 37% | 1016.7 hPa | 0 mm | - | 1023 W/m² | - |
| 1777751408 | 21.11° C | 38% | 1016.8 hPa | 0 mm | - | 1025 W/m² | - |
| 1777751107 | 20.56° C | 36% | 1016.9 hPa | 0 mm | - | 1025 W/m² | - |
| 1777750808 | 20.56° C | 35% | 1017 hPa | 0 mm | - | 1025 W/m² | - |
| 1777750508 | 20.56° C | 37% | 1017 hPa | 0 mm | - | 1018 W/m² | - |
| 1777750208 | 20.56° C | 36% | 1017 hPa | 0 mm | - | 1025 W/m² | - |
| 1777749909 | 20.56° C | 34% | 1017 hPa | 0 mm | - | 1025 W/m² | - |
| 1777749608 | 20.56° C | 37% | 1016.9 hPa | 0 mm | - | 1025 W/m² | - |
| 1777749309 | 20.56° C | 34% | 1017.1 hPa | 0 mm | - | 1023 W/m² | - |
| 1777749008 | 20.56° C | 37% | 1017 hPa | 0 mm | - | 1023 W/m² | - |
| 1777748708 | 20.56° C | 40% | 1016.9 hPa | 0 mm | - | 1025 W/m² | - |
| 1777748409 | 20.56° C | 35% | 1017 hPa | 0 mm | - | 1018 W/m² | - |
| 1777748108 | 20.56° C | 34% | 1017 hPa | 0 mm | - | 1025 W/m² | - |
| 1777747808 | 20.56° C | 36% | 1017.1 hPa | 0 mm | - | 1023 W/m² | - |
| 1777747508 | 20° C | 39% | 1017.2 hPa | 0 mm | - | 1021 W/m² | - |
| 1777747209 | 20° C | 36% | 1017.2 hPa | 0 mm | - | 1021 W/m² | - |
| 1777746907 | 20° C | 37% | 1017.2 hPa | 0 mm | - | 1021 W/m² | - |
| 1777746608 | 20° C | 36% | 1017.1 hPa | 0 mm | - | 1023 W/m² | - |
| 1777746308 | 20° C | 36% | 1017.1 hPa | 0 mm | - | 1025 W/m² | - |
| 1777746008 | 20° C | 38% | 1017.1 hPa | 0 mm | - | 1023 W/m² | - |
* Rain latest hour (hover to see other rain measurements)
** Current wind speed in m/s (hover to see current wind gust speed)